Location: Lesignano de� Bagni
(44.6500°N, 10.3000°E)
Time: 15:04:34
(UTC+00:00)

Nadezhda 3 Rocket - Pass Details

Date: 03 March 2021
Orbit: 957 x 999 km, 82.9° (Epoch: 10 April)

Event Time Altitude Azimuth Distance (km) Brightness Sun altitude
Rises 17:27:36 0° 356° (N) 3,724 7.0 -4.1°
Reaches altitude 10° 17:30:17 10° 3° (N) 2,774 6.3 -4.5°
Maximum altitude 17:36:21 44° 75° (ENE) 1,356 4.4 -5.6°
Drops below altitude 10° 17:42:22 10° 146° (SSE) 2,761 6.1 -6.7°
Sets 17:45:01 0° 153° (SSE) 3,704 6.8 -7.1°
